Погода в Ленцерхайде

Швейцария     46°43′34″N   9°33′27″E
темп.,
°C
ветер,
м/с
пор.,
м/с
влажн.,
%
обл.,
%
осадки,
мм/ч
давл.,
гПа
погр.,
м
13 мая, чт
чт1323:00+2ссв1199100 0.1 101240
02:00+1ссз12100100 0.1 1012119
05:00+1с1295100 0.1 101082
08:00+2с129385 0.1 1010238
11:00+5ссв227670 0.1 1008854
14:00+7ссв337181 0.9 10051158
17:00+4с3494100 1.4 1008568
20:00+2с2398100 2.2 1010263
14 мая, пт
пт1423:00+1ссз12100100 0.8 1011168
02:00+1с2299100 1.6 1011114
05:000св019897 0.1 1012106
08:00+1юз119189 0.1 1012358
11:00+5ссв117154 0.1 1010923
14:00+8св225696 0.4 10071519
17:00+6ссв2373100 1.7 1008935
20:00+3ссв2394100 3.2 1011261
15 мая, сб
сб1523:00+2с23100100 1.3 1013316
02:00+1с12100100 5.3 1014119
05:00+1зсз1198100 0.6 1014217
08:00+2ююз1193100 0.6 1013233
11:00+6ю1374100 0.0 1009992
14:00+8ююз3563100 0.4 10061585
17:00+7ююз1277100 0.4 1007874
20:00+5юз1195100 1.5 1008105
16 мая, вс
вс1623:00+3ююз1298100 1.3 1010261
02:00+3ююв1199100 2.8 1010270
05:00+3с1299100 0.1 1010124
08:00+3ссв1099100 0.3 1011328
11:00+5св019090 0.1 1009419
14:00+10сз127190 0.8 1006966
17:00+10с1277100 2.1 1005544
20:00+6сз1295100 4.6 100871
17 мая, пн
пн1723:00+4сз1199100 1.6 1010122
02:00+4ссз2397100 3.6 1009186
05:00+3с22100100 1.5 1010492
08:00+2с22100100 2.5 1012177
11:00+2ссз22100100 0.7 1012229
14:00+3с2399100 2.2 1011244
17:00+2ссз2399100 2.3 1012172
20:00+2с2295100 2.9 1012381